owner,sensor,date,latitude,longitude,vertical_datum,wind_speed,wind_to_direction,wind_speed_of_gust,qcFlag 
TCOON,ioos:station:TCOON:068:1,2004-09-01T02:00:00Z,27.2970,-97.4049,0.0,3.0,100.0,99.0,'11111222,11111222,11144222' 
TCOON,ioos:station:TCOON:068:1,2004-09-01T05:00:00Z,27.2970,-97.4049,0.0,0.0,0.0,99.0,'11111222,11111222,11144222' 
TCOON,ioos:station:TCOON:068:1,2004-09-01T08:00:00Z,27.2970,-97.4049,0.0,0.0,0.0,99.0,'11111222,11111222,11144222' 
TCOON,ioos:station:TCOON:068:1,2004-09-10T14:00:00Z,27.2970,-97.4049,0.0,0.0,0.0,99.0,'11111222,11111222,11144222' 
TCOON,ioos:station:TCOON:068:1,2004-09-10T16:00:00Z,27.2970,-97.4049,0.0,4.0,30.0,99.0,'11111222,11111222,11144222' 
TCOON,ioos:station:TCOON:068:1,2004-09-10T17:00:00Z,27.2970,-97.4049,0.0,4.0,30.0,99.0,'11111222,11111222,11144222' 
TCOON,ioos:station:TCOON:068:1,2004-09-10T18:00:00Z,27.2970,-97.4049,0.0,4.0,50.0,99.0,'11111222,11111222,11144222' 
TCOON,ioos:station:TCOON:068:1,2004-09-10T19:00:00Z,27.2970,-97.4049,0.0,6.0,60.0,99.0,'11111222,11111222,11144222' 
TCOON,ioos:station:TCOON:068:1,2004-09-10T20:00:00Z,27.2970,-97.4049,0.0,8.0,40.0,99.0,'11111222,11111222,11144222' 
TCOON,ioos:station:TCOON:068:1,2004-09-10T21:00:00Z,27.2970,-97.4049,0.0,5.0,60.0,99.0,'11111222,11111222,11144222' 
TCOON,ioos:station:TCOON:068:1,2004-09-10T22:00:00Z,27.2970,-97.4049,0.0,6.0,60.0,99.0,'11111222,11111222,11144222' 
TCOON,ioos:station:TCOON:068:1,2004-09-10T23:00:00Z,27.2970,-97.4049,0.0,7.0,70.0,99.0,'11111222,11111222,11144222' 
TCOON,ioos:station:TCOON:068:1,2004-09-11T00:00:00Z,27.2970,-97.4049,0.0,8.0,70.0,99.0,'11111222,11111222,11144222' 
TCOON,ioos:station:TCOON:068:1,2004-09-11T02:00:00Z,27.2970,-97.4049,0.0,5.0,80.0,99.0,'11111222,11111222,11144222' 
TCOON,ioos:station:TCOON:068:1,2004-09-11T03:00:00Z,27.2970,-97.4049,0.0,5.0,80.0,99.0,'11111222,11111222,11144222' 
TCOON,ioos:station:TCOON:068:1,2004-09-11T04:00:00Z,27.2970,-97.4049,0.0,5.0,80.0,99.0,'11111222,11111222,11144222' 
TCOON,ioos:station:TCOON:068:1,2004-09-11T05:00:00Z,27.2970,-97.4049,0.0,4.0,80.0,99.0,'11111222,11111222,11144222' 
TCOON,ioos:station:TCOON:068:1,2004-09-11T07:00:00Z,27.2970,-97.4049,0.0,3.0,80.0,99.0,'11111222,11111222,11144222' 
TCOON,ioos:station:TCOON:068:1,2004-09-11T11:00:00Z,27.2970,-97.4049,0.0,2.0,320.0,99.0,'11111222,11111222,11144222' 
TCOON,ioos:station:TCOON:068:1,2004-09-11T13:00:00Z,27.2970,-97.4049,0.0,2.0,0.0,99.0,'11111222,11111222,11144222' 
TCOON,ioos:station:TCOON:068:1,2004-09-11T15:00:00Z,27.2970,-97.4049,0.0,3.0,50.0,99.0,'11111222,11111222,11144222' 
TCOON,ioos:station:TCOON:068:1,2004-09-11T23:00:00Z,27.2970,-97.4049,0.0,6.0,60.0,99.0,'11111222,11111222,11144222' 
TCOON,ioos:station:TCOON:068:1,2004-09-12T01:00:00Z,27.2970,-97.4049,0.0,6.0,80.0,99.0,'11111222,11111222,11144222' 
TCOON,ioos:station:TCOON:068:1,2004-09-12T03:00:00Z,27.2970,-97.4049,0.0,3.0,80.0,99.0,'11111222,11111222,11144222' 
TCOON,ioos:station:TCOON:068:1,2004-09-12T04:00:00Z,27.2970,-97.4049,0.0,3.0,80.0,99.0,'11111222,11111222,11144222' 
TCOON,ioos:station:TCOON:068:1,2004-09-12T05:00:00Z,27.2970,-97.4049,0.0,3.0,80.0,99.0,'11111222,11111222,11144222' 
TCOON,ioos:station:TCOON:068:1,2004-09-12T06:00:00Z,27.2970,-97.4049,0.0,2.0,80.0,99.0,'11111222,11111222,11144222' 
TCOON,ioos:station:TCOON:068:1,2004-09-12T11:00:00Z,27.2970,-97.4049,0.0,4.0,310.0,99.0,'11111222,11111222,11144222' 
TCOON,ioos:station:TCOON:068:1,2004-09-12T13:00:00Z,27.2970,-97.4049,0.0,5.0,310.0,99.0,'11111222,11111222,11144222' 
TCOON,ioos:station:TCOON:068:1,2004-09-12T14:00:00Z,27.2970,-97.4049,0.0,4.0,320.0,99.0,'11111222,11111222,11144222' 
TCOON,ioos:station:TCOON:068:1,2004-09-12T15:00:00Z,27.2970,-97.4049,0.0,3.0,340.0,99.0,'11111222,11111222,11144222' 
TCOON,ioos:station:TCOON:068:1,2004-09-12T18:00:00Z,27.2970,-97.4049,0.0,4.0,20.0,99.0,'11111222,11111222,11144222' 
TCOON,ioos:station:TCOON:068:1,2004-09-12T19:00:00Z,27.2970,-97.4049,0.0,5.0,50.0,99.0,'11111222,11111222,11144222' 
TCOON,ioos:station:TCOON:068:1,2004-09-12T20:00:00Z,27.2970,-97.4049,0.0,6.0,60.0,99.0,'11111222,11111222,11144222' 
TCOON,ioos:station:TCOON:068:1,2004-09-13T00:00:00Z,27.2970,-97.4049,0.0,5.0,70.0,99.0,'11111222,11111222,11144222' 
TCOON,ioos:station:TCOON:068:1,2004-09-13T04:00:00Z,27.2970,-97.4049,0.0,4.0,70.0,99.0,'11111222,11111222,11144222' 
TCOON,ioos:station:TCOON:068:1,2004-09-13T05:00:00Z,27.2970,-97.4049,0.0,2.0,50.0,99.0,'11111222,11111222,11144222' 
TCOON,ioos:station:TCOON:068:1,2004-09-13T06:00:00Z,27.2970,-97.4049,0.0,1.0,60.0,99.0,'11111222,11111222,11144222' 
TCOON,ioos:station:TCOON:068:1,2004-09-13T07:00:00Z,27.2970,-97.4049,0.0,2.0,330.0,99.0,'11111222,11111222,11144222' 
TCOON,ioos:station:TCOON:068:1,2004-09-13T09:00:00Z,27.2970,-97.4049,0.0,4.0,310.0,99.0,'11111222,11111222,11144222' 
TCOON,ioos:station:TCOON:068:1,2004-09-13T11:00:00Z,27.2970,-97.4049,0.0,3.0,310.0,99.0,'11111222,11111222,11144222' 
TCOON,ioos:station:TCOON:068:1,2004-09-13T13:00:00Z,27.2970,-97.4049,0.0,4.0,330.0,99.0,'11111222,11111222,11144222' 
TCOON,ioos:station:TCOON:068:1,2004-09-13T14:00:00Z,27.2970,-97.4049,0.0,3.0,350.0,99.0,'11111222,11111222,11144222' 
TCOON,ioos:station:TCOON:068:1,2004-09-13T16:00:00Z,27.2970,-97.4049,0.0,1.0,320.0,99.0,'11111222,11111222,11144222' 
TCOON,ioos:station:TCOON:068:1,2004-09-13T17:00:00Z,27.2970,-97.4049,0.0,3.0,330.0,99.0,'11111222,11111222,11144222' 
TCOON,ioos:station:TCOON:068:1,2004-09-13T18:00:00Z,27.2970,-97.4049,0.0,3.0,30.0,99.0,'11111222,11111222,11144222' 
TCOON,ioos:station:TCOON:068:1,2004-09-13T19:00:00Z,27.2970,-97.4049,0.0,5.0,80.0,99.0,'11111222,11111222,11144222' 
TCOON,ioos:station:TCOON:068:1,2004-09-13T20:00:00Z,27.2970,-97.4049,0.0,6.0,100.0,99.0,'11111222,11111222,11144222' 
TCOON,ioos:station:TCOON:068:1,2004-09-13T21:00:00Z,27.2970,-97.4049,0.0,5.0,110.0,99.0,'11111222,11111222,11144222' 
TCOON,ioos:station:TCOON:068:1,2004-09-13T22:00:00Z,27.2970,-97.4049,0.0,5.0,100.0,99.0,'11111222,11111222,11144222' 
TCOON,ioos:station:TCOON:068:1,2004-09-13T23:00:00Z,27.2970,-97.4049,0.0,6.0,100.0,99.0,'11111222,11111222,11144222' 
TCOON,ioos:station:TCOON:068:1,2004-09-14T00:00:00Z,27.2970,-97.4049,0.0,5.0,90.0,99.0,'11111222,11111222,11144222' 
TCOON,ioos:station:TCOON:068:1,2004-09-14T01:00:00Z,27.2970,-97.4049,0.0,6.0,100.0,99.0,'11111222,11111222,11144222' 
TCOON,ioos:station:TCOON:068:1,2004-09-14T02:00:00Z,27.2970,-97.4049,0.0,6.0,100.0,99.0,'11111222,11111222,11144222' 
TCOON,ioos:station:TCOON:068:1,2004-09-14T07:00:00Z,27.2970,-97.4049,0.0,7.0,130.0,99.0,'11111222,11111222,11144222' 
TCOON,ioos:station:TCOON:068:1,2004-09-14T08:00:00Z,27.2970,-97.4049,0.0,5.0,140.0,99.0,'11111222,11111222,11144222' 
TCOON,ioos:station:TCOON:068:1,2004-09-14T09:00:00Z,27.2970,-97.4049,0.0,5.0,180.0,99.0,'11111222,11111222,11144222' 
TCOON,ioos:station:TCOON:068:1,2004-09-14T11:00:00Z,27.2970,-97.4049,0.0,0.0,0.0,99.0,'11111222,11111222,11144222' 
TCOON,ioos:station:TCOON:068:1,2004-09-14T13:00:00Z,27.2970,-97.4049,0.0,0.0,0.0,99.0,'11111222,11111222,11144222' 
TCOON,ioos:station:TCOON:068:1,2004-09-14T14:00:00Z,27.2970,-97.4049,0.0,0.0,0.0,99.0,'11111222,11111222,11144222' 
TCOON,ioos:station:TCOON:068:1,2004-09-14T16:00:00Z,27.2970,-97.4049,0.0,3.0,50.0,99.0,'11111222,11111222,11144222' 
TCOON,ioos:station:TCOON:068:1,2004-09-14T19:00:00Z,27.2970,-97.4049,0.0,5.0,100.0,99.0,'11111222,11111222,11144222' 
TCOON,ioos:station:TCOON:068:1,2004-09-14T20:00:00Z,27.2970,-97.4049,0.0,5.0,100.0,99.0,'11111222,11111222,11144222' 
TCOON,ioos:station:TCOON:068:1,2004-09-14T21:00:00Z,27.2970,-97.4049,0.0,6.0,100.0,99.0,'11111222,11111222,11144222' 
TCOON,ioos:station:TCOON:068:1,2004-09-14T23:00:00Z,27.2970,-97.4049,0.0,6.0,100.0,99.0,'11111222,11111222,11144222' 
TCOON,ioos:station:TCOON:068:1,2004-09-15T02:00:00Z,27.2970,-97.4049,0.0,7.0,110.0,99.0,'11111222,11111222,11144222' 
TCOON,ioos:station:TCOON:068:1,2004-09-15T03:00:00Z,27.2970,-97.4049,0.0,5.0,100.0,99.0,'11111222,11111222,11144222' 
TCOON,ioos:station:TCOON:068:1,2004-09-15T04:00:00Z,27.2970,-97.4049,0.0,6.0,110.0,99.0,'11111222,11111222,11144222' 
TCOON,ioos:station:TCOON:068:1,2004-09-15T05:00:00Z,27.2970,-97.4049,0.0,5.0,120.0,99.0,'11111222,11111222,11144222' 
TCOON,ioos:station:TCOON:068:1,2004-09-15T07:00:00Z,27.2970,-97.4049,0.0,5.0,120.0,99.0,'11111222,11111222,11144222' 
TCOON,ioos:station:TCOON:068:1,2004-09-15T08:00:00Z,27.2970,-97.4049,0.0,4.0,120.0,99.0,'11111222,11111222,11144222' 
TCOON,ioos:station:TCOON:068:1,2004-09-15T12:00:00Z,27.2970,-97.4049,0.0,3.0,100.0,99.0,'11111222,11111222,11144222' 
TCOON,ioos:station:TCOON:068:1,2004-09-15T14:00:00Z,27.2970,-97.4049,0.0,2.0,100.0,99.0,'11111222,11111222,11144222' 
TCOON,ioos:station:TCOON:068:1,2004-09-15T17:00:00Z,27.2970,-97.4049,0.0,3.0,80.0,99.0,'11111222,11111222,11144222' 
TCOON,ioos:station:TCOON:068:1,2004-09-15T20:00:00Z,27.2970,-97.4049,0.0,4.0,90.0,99.0,'11111222,11111222,11144222' 
TCOON,ioos:station:TCOON:068:1,2004-09-15T23:00:00Z,27.2970,-97.4049,0.0,5.0,80.0,99.0,'11111222,11111222,11144222' 
TCOON,ioos:station:TCOON:068:1,2004-09-16T02:00:00Z,27.2970,-97.4049,0.0,4.0,90.0,99.0,'11111222,11111222,11144222' 
TCOON,ioos:station:TCOON:068:1,2004-09-16T05:00:00Z,27.2970,-97.4049,0.0,3.0,130.0,99.0,'11111222,11111222,11144222' 
TCOON,ioos:station:TCOON:068:1,2004-09-16T08:00:00Z,27.2970,-97.4049,0.0,3.0,150.0,99.0,'11111222,11111222,11144222' 
TCOON,ioos:station:TCOON:068:1,2004-09-16T11:00:00Z,27.2970,-97.4049,0.0,4.0,200.0,99.0,'11111222,11111222,11144222' 
TCOON,ioos:station:TCOON:068:1,2004-09-16T12:00:00Z,27.2970,-97.4049,0.0,3.0,200.0,99.0,'11111222,11111222,11144222' 
TCOON,ioos:station:TCOON:068:1,2004-09-16T13:00:00Z,27.2970,-97.4049,0.0,1.0,210.0,99.0,'11111222,11111222,11144222' 
TCOON,ioos:station:TCOON:068:1,2004-09-16T14:00:00Z,27.2970,-97.4049,0.0,0.0,0.0,99.0,'11111222,11111222,11144222' 
TCOON,ioos:station:TCOON:068:1,2004-09-16T16:00:00Z,27.2970,-97.4049,0.0,0.0,0.0,99.0,'11111222,11111222,11144222' 
TCOON,ioos:station:TCOON:068:1,2004-09-16T17:00:00Z,27.2970,-97.4049,0.0,0.0,0.0,99.0,'11111222,11111222,11144222' 
TCOON,ioos:station:TCOON:068:1,2004-09-16T19:00:00Z,27.2970,-97.4049,0.0,4.0,70.0,99.0,'11111222,11111222,11144222' 
TCOON,ioos:station:TCOON:068:1,2004-09-16T22:00:00Z,27.2970,-97.4049,0.0,5.0,70.0,99.0,'11111222,11111222,11144222' 
TCOON,ioos:station:TCOON:068:1,2004-09-16T23:00:00Z,27.2970,-97.4049,0.0,5.0,70.0,99.0,'11111222,11111222,11144222' 
TCOON,ioos:station:TCOON:068:1,2004-09-17T02:00:00Z,27.2970,-97.4049,0.0,5.0,110.0,99.0,'11111222,11111222,11144222' 
TCOON,ioos:station:TCOON:068:1,2004-09-17T05:00:00Z,27.2970,-97.4049,0.0,5.0,140.0,99.0,'11111222,11111222,11144222' 
TCOON,ioos:station:TCOON:068:1,2004-09-17T08:00:00Z,27.2970,-97.4049,0.0,4.0,200.0,99.0,'11111222,11111222,11144222' 
TCOON,ioos:station:TCOON:068:1,2004-09-17T11:00:00Z,27.2970,-97.4049,0.0,2.0,200.0,99.0,'11111222,11111222,11144222' 
TCOON,ioos:station:TCOON:068:1,2004-09-17T14:00:00Z,27.2970,-97.4049,0.0,0.0,0.0,99.0,'11111222,11111222,11144222' 
TCOON,ioos:station:TCOON:068:1,2004-09-17T16:00:00Z,27.2970,-97.4049,0.0,0.0,0.0,99.0,'11111222,11111222,11144222' 
TCOON,ioos:station:TCOON:068:1,2004-09-17T17:00:00Z,27.2970,-97.4049,0.0,4.0,70.0,99.0,'11111222,11111222,11144222' 
TCOON,ioos:station:TCOON:068:1,2004-09-17T19:00:00Z,27.2970,-97.4049,0.0,5.0,80.0,99.0,'11111222,11111222,11144222' 
TCOON,ioos:station:TCOON:068:1,2004-09-17T20:00:00Z,27.2970,-97.4049,0.0,5.0,90.0,99.0,'11111222,11111222,11144222' 
TCOON,ioos:station:TCOON:068:1,2004-09-17T22:00:00Z,27.2970,-97.4049,0.0,6.0,70.0,99.0,'11111222,11111222,11144222' 
TCOON,ioos:station:TCOON:068:1,2004-09-17T23:00:00Z,27.2970,-97.4049,0.0,7.0,90.0,99.0,'11111222,11111222,11144222' 
TCOON,ioos:station:TCOON:068:1,2004-09-18T02:00:00Z,27.2970,-97.4049,0.0,4.0,100.0,99.0,'11111222,11111222,11144222' 
TCOON,ioos:station:TCOON:068:1,2004-09-18T05:00:00Z,27.2970,-97.4049,0.0,4.0,90.0,99.0,'11111222,11111222,11144222' 
TCOON,ioos:station:TCOON:068:1,2004-09-18T08:00:00Z,27.2970,-97.4049,0.0,5.0,120.0,99.0,'11111222,11111222,11144222' 
TCOON,ioos:station:TCOON:068:1,2004-09-18T11:00:00Z,27.2970,-97.4049,0.0,2.0,190.0,99.0,'11111222,11111222,11144222' 
TCOON,ioos:station:TCOON:068:1,2004-09-18T14:00:00Z,27.2970,-97.4049,0.0,4.0,100.0,99.0,'11111222,11111222,11144222' 
TCOON,ioos:station:TCOON:068:1,2004-09-18T17:00:00Z,27.2970,-97.4049,0.0,6.0,80.0,99.0,'11111222,11111222,11144222' 
TCOON,ioos:station:TCOON:068:1,2004-09-18T19:00:00Z,27.2970,-97.4049,0.0,5.0,100.0,99.0,'11111222,11111222,11144222' 
TCOON,ioos:station:TCOON:068:1,2004-09-18T20:00:00Z,27.2970,-97.4049,0.0,7.0,80.0,99.0,'11111222,11111222,11144222' 
TCOON,ioos:station:TCOON:068:1,2004-09-18T22:00:00Z,27.2970,-97.4049,0.0,8.0,70.0,99.0,'11111222,11111222,11144222' 
TCOON,ioos:station:TCOON:068:1,2004-09-18T23:00:00Z,27.2970,-97.4049,0.0,7.0,90.0,99.0,'11111222,11111222,11144222' 
TCOON,ioos:station:TCOON:068:1,2004-09-19T01:00:00Z,27.2970,-97.4049,0.0,5.0,110.0,99.0,'11111222,11111222,11144222' 
TCOON,ioos:station:TCOON:068:1,2004-09-19T02:00:00Z,27.2970,-97.4049,0.0,7.0,90.0,99.0,'11111222,11111222,11144222' 
TCOON,ioos:station:TCOON:068:1,2004-09-19T04:00:00Z,27.2970,-97.4049,0.0,7.0,100.0,99.0,'11111222,11111222,11144222' 
TCOON,ioos:station:TCOON:068:1,2004-09-19T05:00:00Z,27.2970,-97.4049,0.0,6.0,110.0,99.0,'11111222,11111222,11144222' 
TCOON,ioos:station:TCOON:068:1,2004-09-19T08:00:00Z,27.2970,-97.4049,0.0,5.0,120.0,99.0,'11111222,11111222,11144222' 
TCOON,ioos:station:TCOON:068:1,2004-09-19T10:00:00Z,27.2970,-97.4049,0.0,4.0,110.0,99.0,'11111222,11111222,11144222' 
TCOON,ioos:station:TCOON:068:1,2004-09-19T11:00:00Z,27.2970,-97.4049,0.0,4.0,110.0,99.0,'11111222,11111222,11144222' 
TCOON,ioos:station:TCOON:068:1,2004-09-19T13:00:00Z,27.2970,-97.4049,0.0,4.0,110.0,99.0,'11111222,11111222,11144222' 
TCOON,ioos:station:TCOON:068:1,2004-09-19T14:00:00Z,27.2970,-97.4049,0.0,4.0,100.0,99.0,'11111222,11111222,11144222' 
TCOON,ioos:station:TCOON:068:1,2004-09-19T17:00:00Z,27.2970,-97.4049,0.0,7.0,80.0,99.0,'11111222,11111222,11144222' 
TCOON,ioos:station:TCOON:068:1,2004-09-19T20:00:00Z,27.2970,-97.4049,0.0,6.0,90.0,99.0,'11111222,11111222,11144222' 
TCOON,ioos:station:TCOON:068:1,2004-09-19T23:00:00Z,27.2970,-97.4049,0.0,6.0,90.0,99.0,'11111222,11111222,11144222' 
TCOON,ioos:station:TCOON:068:1,2004-09-20T02:00:00Z,27.2970,-97.4049,0.0,5.0,90.0,99.0,'11111222,11111222,11144222' 
TCOON,ioos:station:TCOON:068:1,2004-09-20T04:00:00Z,27.2970,-97.4049,0.0,5.0,110.0,99.0,'11111222,11111222,11144222' 
TCOON,ioos:station:TCOON:068:1,2004-09-20T05:00:00Z,27.2970,-97.4049,0.0,5.0,100.0,99.0,'11111222,11111222,11144222' 
TCOON,ioos:station:TCOON:068:1,2004-09-20T08:00:00Z,27.2970,-97.4049,0.0,3.0,80.0,99.0,'11111222,11111222,11144222' 
TCOON,ioos:station:TCOON:068:1,2004-09-20T10:00:00Z,27.2970,-97.4049,0.0,3.0,80.0,99.0,'11111222,11111222,11144222' 
TCOON,ioos:station:TCOON:068:1,2004-09-20T11:00:00Z,27.2970,-97.4049,0.0,3.0,80.0,99.0,'11111222,11111222,11144222' 
TCOON,ioos:station:TCOON:068:1,2004-09-20T13:00:00Z,27.2970,-97.4049,0.0,3.0,80.0,99.0,'11111222,11111222,11144222' 
TCOON,ioos:station:TCOON:068:1,2004-09-20T14:00:00Z,27.2970,-97.4049,0.0,3.0,80.0,99.0,'11111222,11111222,11144222' 
TCOON,ioos:station:TCOON:068:1,2004-09-20T16:00:00Z,27.2970,-97.4049,0.0,3.0,70.0,99.0,'11111222,11111222,11144222' 
TCOON,ioos:station:TCOON:068:1,2004-09-20T17:00:00Z,27.2970,-97.4049,0.0,3.0,80.0,99.0,'11111222,11111222,11144222' 
TCOON,ioos:station:TCOON:068:1,2004-09-20T19:00:00Z,27.2970,-97.4049,0.0,5.0,70.0,99.0,'11111222,11111222,11144222' 
TCOON,ioos:station:TCOON:068:1,2004-09-20T20:00:00Z,27.2970,-97.4049,0.0,5.0,60.0,99.0,'11111222,11111222,11144222' 
TCOON,ioos:station:TCOON:068:1,2004-09-20T23:00:00Z,27.2970,-97.4049,0.0,6.0,80.0,99.0,'11111222,11111222,11144222' 
TCOON,ioos:station:TCOON:068:1,2004-09-21T01:00:00Z,27.2970,-97.4049,0.0,5.0,90.0,99.0,'11111222,11111222,11144222' 
TCOON,ioos:station:TCOON:068:1,2004-09-21T02:00:00Z,27.2970,-97.4049,0.0,5.0,80.0,99.0,'11111222,11111222,11144222' 
TCOON,ioos:station:TCOON:068:1,2004-09-21T04:00:00Z,27.2970,-97.4049,0.0,6.0,100.0,99.0,'11111222,11111222,11144222' 
TCOON,ioos:station:TCOON:068:1,2004-09-21T05:00:00Z,27.2970,-97.4049,0.0,7.0,100.0,99.0,'11111222,11111222,11144222' 
TCOON,ioos:station:TCOON:068:1,2004-09-21T08:00:00Z,27.2970,-97.4049,0.0,5.0,100.0,99.0,'11111222,11111222,11144222' 
TCOON,ioos:station:TCOON:068:1,2004-09-21T11:00:00Z,27.2970,-97.4049,0.0,3.0,90.0,99.0,'11111222,11111222,11144222' 
TCOON,ioos:station:TCOON:068:1,2004-09-21T14:00:00Z,27.2970,-97.4049,0.0,4.0,80.0,99.0,'11111222,11111222,11144222' 
TCOON,ioos:station:TCOON:068:1,2004-09-21T16:00:00Z,27.2970,-97.4049,0.0,5.0,80.0,99.0,'11111222,11111222,11144222' 
TCOON,ioos:station:TCOON:068:1,2004-09-21T17:00:00Z,27.2970,-97.4049,0.0,6.0,80.0,99.0,'11111222,11111222,11144222' 
TCOON,ioos:station:TCOON:068:1,2004-09-21T20:00:00Z,27.2970,-97.4049,0.0,5.0,80.0,99.0,'11111222,11111222,11144222' 
TCOON,ioos:station:TCOON:068:1,2004-09-21T22:00:00Z,27.2970,-97.4049,0.0,8.0,70.0,99.0,'11111222,11111222,11144222' 
TCOON,ioos:station:TCOON:068:1,2004-09-22T00:00:00Z,27.2970,-97.4049,0.0,9.0,60.0,99.0,'11111222,11111222,11144222' 
TCOON,ioos:station:TCOON:068:1,2004-09-22T01:00:00Z,27.2970,-97.4049,0.0,9.0,70.0,99.0,'11111222,11111222,11144222' 
TCOON,ioos:station:TCOON:068:1,2004-09-22T02:00:00Z,27.2970,-97.4049,0.0,6.0,80.0,99.0,'11111222,11111222,11144222' 
TCOON,ioos:station:TCOON:068:1,2004-09-22T05:00:00Z,27.2970,-97.4049,0.0,5.0,90.0,99.0,'11111222,11111222,11144222' 
TCOON,ioos:station:TCOON:068:1,2004-09-22T07:00:00Z,27.2970,-97.4049,0.0,8.0,80.0,99.0,'11111222,11111222,11144222' 
TCOON,ioos:station:TCOON:068:1,2004-09-22T08:00:00Z,27.2970,-97.4049,0.0,8.0,120.0,99.0,'11111222,11111222,11144222' 
TCOON,ioos:station:TCOON:068:1,2004-09-22T12:00:00Z,27.2970,-97.4049,0.0,5.0,160.0,99.0,'11111222,11111222,11144222' 
TCOON,ioos:station:TCOON:068:1,2004-09-22T16:00:00Z,27.2970,-97.4049,0.0,0.0,0.0,99.0,'11111222,11111222,11144222' 
TCOON,ioos:station:TCOON:068:1,2004-09-22T17:00:00Z,27.2970,-97.4049,0.0,1.0,100.0,99.0,'11111222,11111222,11144222' 
TCOON,ioos:station:TCOON:068:1,2004-09-22T19:00:00Z,27.2970,-97.4049,0.0,6.0,60.0,99.0,'11111222,11111222,11144222' 
TCOON,ioos:station:TCOON:068:1,2004-09-22T20:00:00Z,27.2970,-97.4049,0.0,5.0,60.0,99.0,'11111222,11111222,11144222' 
TCOON,ioos:station:TCOON:068:1,2004-09-22T23:00:00Z,27.2970,-97.4049,0.0,7.0,70.0,99.0,'11111222,11111222,11144222' 
TCOON,ioos:station:TCOON:068:1,2004-09-23T00:00:00Z,27.2970,-97.4049,0.0,6.0,70.0,99.0,'11111222,11111222,11144222' 
TCOON,ioos:station:TCOON:068:1,2004-09-23T02:00:00Z,27.2970,-97.4049,0.0,7.0,80.0,99.0,'11111222,11111222,11144222' 
TCOON,ioos:station:TCOON:068:1,2004-09-23T03:00:00Z,27.2970,-97.4049,0.0,7.0,80.0,99.0,'11111222,11111222,11144222' 
TCOON,ioos:station:TCOON:068:1,2004-09-23T08:00:00Z,27.2970,-97.4049,0.0,5.0,100.0,99.0,'11111222,11111222,11144222' 
TCOON,ioos:station:TCOON:068:1,2004-09-23T11:00:00Z,27.2970,-97.4049,0.0,2.0,100.0,99.0,'11111222,11111222,11144222' 
TCOON,ioos:station:TCOON:068:1,2004-09-23T13:00:00Z,27.2970,-97.4049,0.0,4.0,170.0,99.0,'11111222,11111222,11144222' 
TCOON,ioos:station:TCOON:068:1,2004-09-23T14:00:00Z,27.2970,-97.4049,0.0,0.0,0.0,99.0,'11111222,11111222,11144222' 
TCOON,ioos:station:TCOON:068:1,2004-09-23T19:00:00Z,27.2970,-97.4049,0.0,2.0,120.0,99.0,'11111222,11111222,11144222' 
TCOON,ioos:station:TCOON:068:1,2004-09-23T20:00:00Z,27.2970,-97.4049,0.0,2.0,110.0,99.0,'11111222,11111222,11144222' 
TCOON,ioos:station:TCOON:068:1,2004-09-23T22:00:00Z,27.2970,-97.4049,0.0,3.0,70.0,99.0,'11111222,11111222,11144222' 
TCOON,ioos:station:TCOON:068:1,2004-09-23T23:00:00Z,27.2970,-97.4049,0.0,3.0,80.0,99.0,'11111222,11111222,11144222' 
TCOON,ioos:station:TCOON:068:1,2004-09-24T02:00:00Z,27.2970,-97.4049,0.0,3.0,90.0,99.0,'11111222,11111222,11144222' 
TCOON,ioos:station:TCOON:068:1,2004-09-24T03:00:00Z,27.2970,-97.4049,0.0,2.0,100.0,99.0,'11111222,11111222,11144222' 
TCOON,ioos:station:TCOON:068:1,2004-09-24T04:00:00Z,27.2970,-97.4049,0.0,2.0,90.0,99.0,'11111222,11111222,11144222' 
TCOON,ioos:station:TCOON:068:1,2004-09-24T05:00:00Z,27.2970,-97.4049,0.0,1.0,130.0,99.0,'11111222,11111222,11144222' 
TCOON,ioos:station:TCOON:068:1,2004-09-24T08:00:00Z,27.2970,-97.4049,0.0,2.0,210.0,99.0,'11111222,11111222,11144222' 
TCOON,ioos:station:TCOON:068:1,2004-09-24T11:00:00Z,27.2970,-97.4049,0.0,3.0,300.0,99.0,'11111222,11111222,11144222' 
TCOON,ioos:station:TCOON:068:1,2004-09-24T14:00:00Z,27.2970,-97.4049,0.0,4.0,320.0,99.0,'11111222,11111222,11144222' 
TCOON,ioos:station:TCOON:068:1,2004-09-24T20:00:00Z,27.2970,-97.4049,0.0,3.0,90.0,99.0,'11111222,11111222,11144222' 
TCOON,ioos:station:TCOON:068:1,2004-09-24T21:00:00Z,27.2970,-97.4049,0.0,9.0,270.0,99.0,'11111222,11111222,11144222' 
TCOON,ioos:station:TCOON:068:1,2004-09-24T23:00:00Z,27.2970,-97.4049,0.0,4.0,90.0,99.0,'11111222,11111222,11144222' 
TCOON,ioos:station:TCOON:068:1,2004-09-25T00:00:00Z,27.2970,-97.4049,0.0,3.0,90.0,99.0,'11111222,11111222,11144222' 
TCOON,ioos:station:TCOON:068:1,2004-09-25T01:00:00Z,27.2970,-97.4049,0.0,4.0,80.0,99.0,'11111222,11111222,11144222' 
TCOON,ioos:station:TCOON:068:1,2004-09-25T02:00:00Z,27.2970,-97.4049,0.0,3.0,120.0,99.0,'11111222,11111222,11144222' 
TCOON,ioos:station:TCOON:068:1,2004-09-25T08:00:00Z,27.2970,-97.4049,0.0,5.0,220.0,99.0,'11111222,11111222,11144222' 
TCOON,ioos:station:TCOON:068:1,2004-09-25T09:00:00Z,27.2970,-97.4049,0.0,3.0,300.0,99.0,'11111222,11111222,11144222' 
TCOON,ioos:station:TCOON:068:1,2004-09-25T11:00:00Z,27.2970,-97.4049,0.0,5.0,340.0,99.0,'11111222,11111222,11144222' 
TCOON,ioos:station:TCOON:068:1,2004-09-25T13:00:00Z,27.2970,-97.4049,0.0,5.0,330.0,99.0,'11111222,11111222,11144222' 
TCOON,ioos:station:TCOON:068:1,2004-09-25T14:00:00Z,27.2970,-97.4049,0.0,5.0,330.0,99.0,'11111222,11111222,11144222' 
TCOON,ioos:station:TCOON:068:1,2004-09-25T17:00:00Z,27.2970,-97.4049,0.0,3.0,340.0,99.0,'11111222,11111222,11144222' 
TCOON,ioos:station:TCOON:068:1,2004-09-25T19:00:00Z,27.2970,-97.4049,0.0,4.0,20.0,99.0,'11111222,11111222,11144222' 
TCOON,ioos:station:TCOON:068:1,2004-09-25T20:00:00Z,27.2970,-97.4049,0.0,4.0,30.0,99.0,'11111222,11111222,11144222' 
TCOON,ioos:station:TCOON:068:1,2004-09-25T23:00:00Z,27.2970,-97.4049,0.0,5.0,40.0,99.0,'11111222,11111222,11144222' 
TCOON,ioos:station:TCOON:068:1,2004-09-26T00:00:00Z,27.2970,-97.4049,0.0,5.0,40.0,99.0,'11111222,11111222,11144222' 
TCOON,ioos:station:TCOON:068:1,2004-09-26T01:00:00Z,27.2970,-97.4049,0.0,5.0,40.0,99.0,'11111222,11111222,11144222' 
TCOON,ioos:station:TCOON:068:1,2004-09-26T02:00:00Z,27.2970,-97.4049,0.0,6.0,50.0,99.0,'11111222,11111222,11144222' 
TCOON,ioos:station:TCOON:068:1,2004-09-26T04:00:00Z,27.2970,-97.4049,0.0,4.0,60.0,99.0,'11111222,11111222,11144222' 
TCOON,ioos:station:TCOON:068:1,2004-09-26T05:00:00Z,27.2970,-97.4049,0.0,5.0,70.0,99.0,'11111222,11111222,11144222' 
TCOON,ioos:station:TCOON:068:1,2004-09-26T07:00:00Z,27.2970,-97.4049,0.0,5.0,70.0,99.0,'11111222,11111222,11144222' 
TCOON,ioos:station:TCOON:068:1,2004-09-26T08:00:00Z,27.2970,-97.4049,0.0,2.0,120.0,99.0,'11111222,11111222,11144222' 
TCOON,ioos:station:TCOON:068:1,2004-09-26T12:00:00Z,27.2970,-97.4049,0.0,3.0,210.0,99.0,'11111222,11111222,11144222' 
TCOON,ioos:station:TCOON:068:1,2004-09-26T14:00:00Z,27.2970,-97.4049,0.0,4.0,280.0,99.0,'11111222,11111222,11144222' 
TCOON,ioos:station:TCOON:068:1,2004-09-26T15:00:00Z,27.2970,-97.4049,0.0,4.0,240.0,99.0,'11111222,11111222,11144222' 
TCOON,ioos:station:TCOON:068:1,2004-09-26T16:00:00Z,27.2970,-97.4049,0.0,3.0,240.0,99.0,'11111222,11111222,11144222' 
TCOON,ioos:station:TCOON:068:1,2004-09-26T17:00:00Z,27.2970,-97.4049,0.0,6.0,60.0,99.0,'11111222,11111222,11144222' 
TCOON,ioos:station:TCOON:068:1,2004-09-26T19:00:00Z,27.2970,-97.4049,0.0,5.0,60.0,99.0,'11111222,11111222,11144222' 